Flag for U.S.A. Weather past 2 weeks in St. Petersburg, Florida, U.S.A.

Now
75 °F

Sunny.


Feels Like: 77 °F
Forecast: 65 / 77 °F
Wind: 8 mph from West

Location: Whitted Airport


UV Index: 7 (High)

Visibility: 10 mi


Pressure: 29.89 "Hg

Humidity: 64%

Dew point: 62 °F

Location of St. PetersburgLocation

Historic Weather in St. Petersburg

°F

St. Petersburg temperature yesterday

Maximum temperature yesterday: 74 °F (at 2:53 PM)
Minimum temperature yesterday: 66 °F (at 7:53 AM)
Average temperature yesterday: 70 °F

Past Weeks' High & Low Weather Summary

 TemperatureHumidityPressure
High83 °F (Apr 11, 3:53 PM)96% (Apr 19, 12:53 AM)30.28 "Hg (Apr 19, 12:53 AM)
Low55 °F (Apr 16, 8:53 AM)35% (Apr 10, 3:53 PM)29.76 "Hg (Apr 8, 2:53 PM)
Average71 °F75%30.02 "Hg
* Reported Apr 8 2:53 PM — Apr 23 2:53 PM, St. Petersburg, Weather by CustomWeather, © 2014

Note: Actual official high and low records may vary slightly from our data, if they occured in-between our weather recording intervals... More about our weather records

Advertising

Historic Weather Conditions — Data for Previous 24 hours

 ConditionsComfort  
Time TempWeatherWind HumidityBarometerVisibility
2:53 PM
Apr 23
75 °FScattered clouds.3 mph69%29.91 "Hg10 mi
1:53 PM76 °FPartly sunny.7 mph69%29.93 "Hg10 mi
12:53 PM75 °FScattered clouds.3 mph64%29.94 "Hg10 mi
11:53 AM74 °FPartly sunny.7 mph69%29.96 "Hg10 mi
10:53 AM74 °FPartly sunny.8 mph69%29.96 "Hg10 mi
9:53 AM72 °FOvercast.8 mph73%29.95 "Hg10 mi
8:53 AM71 °FPassing clouds.5 mph78%29.94 "Hg10 mi
7:53 AM69 °FClear.3 mph81%29.93 "Hg10 mi
6:53 AM68 °FClear.5 mph84%29.91 "Hg10 mi
5:53 AM68 °FClear.6 mph84%29.89 "Hg10 mi
4:53 AM68 °FClear.3 mph87%29.88 "Hg10 mi
3:53 AM68 °FClear.7 mph87%29.88 "Hg10 mi
2:53 AM68 °FClear.6 mph84%29.89 "Hg10 mi
1:53 AM68 °FClear.5 mph84%29.90 "Hg10 mi
12:53 AM68 °FClear.3 mph82%29.91 "Hg10 mi
11:53 PM
Apr 22
69 °FClear.3 mph76%29.91 "Hg10 mi
10:53 PM69 °FClear.3 mph76%29.92 "Hg10 mi
9:53 PM70 °FClear.3 mph73%29.91 "Hg10 mi
8:53 PM70 °FSunny.5 mph73%29.89 "Hg10 mi
7:53 PM71 °FSunny.6 mph68%29.87 "Hg10 mi
6:53 PM72 °FSunny.9 mph66%29.87 "Hg10 mi
5:53 PM73 °FSunny.8 mph64%29.88 "Hg10 mi
4:53 PM73 °FSunny.12 mph62%29.89 "Hg10 mi
Weather by CustomWeather, © 2014

See weather overview